Location: Fatehalanka
(16.3139°N, 80.8379°E)
Time: 15:06:21
(UTC+00:00)

Cosmos 2074 Rocket - Pass Details

Date: 14 May 2026
Orbit: 966 x 985 km, 82.9° (Epoch: 10 June)

Event Time Altitude Azimuth Distance (km) Brightness Sun altitude
Rises 21:29:04 0° 1° (N) 3,670 7.5 -34.3°
Reaches altitude 10° 21:31:37 10° 5° (N) 2,719 6.8 -33.8°
Maximum altitude 21:37:46 63° 85° (E) 1,079 4.3 -32.6°
Enters shadow 21:38:07 62° 102° (ESE) 1,088 4.2 -32.5°
